Location: Avully
(45.9633°N, 6.0228°E)
Time: 21:54:04
(UTC+00:00)

Cosmos 2360 Rocket - Pass Details

Date: 14 August 2024
Orbit: 834 x 843 km, 71.0° (Epoch: 10 September)

Event Time Altitude Azimuth Distance (km) Brightness Sun altitude
Exits shadow 00:08:20 67° 315° (NW) 913 2.3 -29.4°
Drops below altitude 10° 00:13:45 10° 22° (NNE) 2,468 5.5 -29.3°
Sets 00:16:14 0° 25° (NNE) 3,406 6.5 -29.2°
